Year,Month,Day,Hour,Minute,Value (Times are PST for windspeed in km/hr)
2019,09,17,00,00,0.00
2019,09,17,00,01,0.00
2019,09,17,00,02,0.00
2019,09,17,00,03,0.00
2019,09,17,00,04,0.00
2019,09,17,00,05,0.00
2019,09,17,00,06,0.00
2019,09,17,00,07,0.00
2019,09,17,00,08,0.00
2019,09,17,00,09,0.00
2019,09,17,00,10,0.00
2019,09,17,00,11,0.00
2019,09,17,00,12,0.00
2019,09,17,00,13,0.00
2019,09,17,00,14,0.00
2019,09,17,00,15,0.00
2019,09,17,00,16,0.00
2019,09,17,00,17,0.00
2019,09,17,00,18,0.00
2019,09,17,00,19,0.00
2019,09,17,00,20,0.00
2019,09,17,00,21,0.00
2019,09,17,00,22,0.00
2019,09,17,00,23,0.00
2019,09,17,00,24,0.00
2019,09,17,00,25,0.10
2019,09,17,00,26,0.80
2019,09,17,00,27,0.00
2019,09,17,00,28,0.00
2019,09,17,00,29,0.00
2019,09,17,00,30,0.00
2019,09,17,00,31,0.00
2019,09,17,00,32,0.00
2019,09,17,00,33,0.00
2019,09,17,00,34,0.00
2019,09,17,00,35,0.00
2019,09,17,00,36,0.00
2019,09,17,00,37,0.00
2019,09,17,00,38,0.00
2019,09,17,00,39,0.00
2019,09,17,00,40,0.00
2019,09,17,00,41,0.00
2019,09,17,00,42,0.00
2019,09,17,00,43,0.00
2019,09,17,00,44,0.00
2019,09,17,00,45,0.00
2019,09,17,00,46,0.00
2019,09,17,00,47,0.00
2019,09,17,00,48,0.00
2019,09,17,00,49,0.00
2019,09,17,00,50,0.00
2019,09,17,00,51,0.00
2019,09,17,00,52,0.00
2019,09,17,00,53,0.00
2019,09,17,00,54,0.00
2019,09,17,00,55,0.00
2019,09,17,00,56,0.00
2019,09,17,00,57,0.00
2019,09,17,00,58,0.00
2019,09,17,00,59,0.00
2019,09,17,01,00,0.00
2019,09,17,01,01,0.00
2019,09,17,01,02,0.00
2019,09,17,01,03,0.00
2019,09,17,01,04,0.00
2019,09,17,01,05,0.00
2019,09,17,01,06,0.00
2019,09,17,01,07,0.00
2019,09,17,01,08,0.00
2019,09,17,01,09,0.00
2019,09,17,01,10,0.00
2019,09,17,01,11,0.00
2019,09,17,01,12,0.00
2019,09,17,01,13,0.00
2019,09,17,01,14,0.00
2019,09,17,01,15,0.00
2019,09,17,01,16,0.00
2019,09,17,01,17,0.00
2019,09,17,01,18,0.00
2019,09,17,01,19,0.00
2019,09,17,01,20,0.00
2019,09,17,01,21,0.00
2019,09,17,01,22,0.00
2019,09,17,01,23,0.00
2019,09,17,01,24,0.00
2019,09,17,01,25,0.00
2019,09,17,01,26,0.00
2019,09,17,01,27,0.00
2019,09,17,01,28,0.00
2019,09,17,01,29,0.00
2019,09,17,01,30,0.00
2019,09,17,01,31,0.00
2019,09,17,01,32,0.00
2019,09,17,01,33,0.00
2019,09,17,01,34,0.00
2019,09,17,01,35,0.00
2019,09,17,01,36,0.00
2019,09,17,01,37,0.00
2019,09,17,01,38,0.00
2019,09,17,01,39,0.00
2019,09,17,01,40,0.00
2019,09,17,01,41,0.00
2019,09,17,01,42,0.00
2019,09,17,01,43,3.60
2019,09,17,01,44,3.00
2019,09,17,01,45,2.60
2019,09,17,01,46,4.50
2019,09,17,01,47,0.10
2019,09,17,01,48,0.00
2019,09,17,01,49,0.00
2019,09,17,01,50,0.00
2019,09,17,01,51,4.50
2019,09,17,01,52,12.20
2019,09,17,01,53,11.10
2019,09,17,01,54,5.90
2019,09,17,01,55,0.00
2019,09,17,01,56,0.10
2019,09,17,01,57,9.50
2019,09,17,01,58,7.90
2019,09,17,01,59,1.40
2019,09,17,02,00,0.00
2019,09,17,02,01,0.00
2019,09,17,02,02,0.10
2019,09,17,02,03,0.00
2019,09,17,02,04,0.00
2019,09,17,02,05,0.00
2019,09,17,02,06,0.20
2019,09,17,02,07,0.00
2019,09,17,02,08,0.00
2019,09,17,02,09,0.10
2019,09,17,02,10,12.70
2019,09,17,02,11,8.60
2019,09,17,02,12,1.90
2019,09,17,02,13,0.00
2019,09,17,02,14,0.00
2019,09,17,02,15,0.00
2019,09,17,02,16,0.00
2019,09,17,02,17,0.00
2019,09,17,02,18,0.00
2019,09,17,02,19,0.00
2019,09,17,02,20,0.00
2019,09,17,02,21,0.00
2019,09,17,02,22,0.00
2019,09,17,02,23,0.00
2019,09,17,02,24,0.00
2019,09,17,02,25,0.00
2019,09,17,02,26,0.00
2019,09,17,02,27,0.00
2019,09,17,02,28,0.00
2019,09,17,02,29,0.00
2019,09,17,02,30,0.00
2019,09,17,02,31,0.00
2019,09,17,02,32,0.00
2019,09,17,02,33,0.10
2019,09,17,02,34,0.00
2019,09,17,02,35,3.20
2019,09,17,02,36,0.00
2019,09,17,02,37,0.00
2019,09,17,02,38,1.70
2019,09,17,02,39,0.00
2019,09,17,02,40,3.20
2019,09,17,02,41,10.80
2019,09,17,02,42,4.60
2019,09,17,02,43,1.50
2019,09,17,02,44,3.40
2019,09,17,02,45,0.00
2019,09,17,02,46,0.00
2019,09,17,02,47,0.00
2019,09,17,02,48,5.30
2019,09,17,02,49,3.80
2019,09,17,02,50,0.00
2019,09,17,02,51,0.00
2019,09,17,02,52,0.00
2019,09,17,02,53,0.00
2019,09,17,02,54,0.00
2019,09,17,02,55,0.00
2019,09,17,02,56,0.00
2019,09,17,02,57,0.00
2019,09,17,02,58,0.00
2019,09,17,02,59,0.00
2019,09,17,03,00,0.00
2019,09,17,03,01,0.00
2019,09,17,03,02,0.00
2019,09,17,03,03,0.00
2019,09,17,03,04,0.00
2019,09,17,03,05,0.00
2019,09,17,03,06,0.00
2019,09,17,03,07,0.00
2019,09,17,03,08,0.00
2019,09,17,03,09,0.00
2019,09,17,03,10,0.00
2019,09,17,03,11,0.00
2019,09,17,03,12,0.00
2019,09,17,03,13,0.00
2019,09,17,03,14,0.00
2019,09,17,03,15,0.00
2019,09,17,03,16,0.00
2019,09,17,03,17,0.00
2019,09,17,03,18,0.00
2019,09,17,03,19,0.00
2019,09,17,03,20,0.00
2019,09,17,03,21,0.00
2019,09,17,03,22,0.00
2019,09,17,03,23,0.00
2019,09,17,03,24,0.00
2019,09,17,03,25,0.00
2019,09,17,03,26,0.00
2019,09,17,03,27,0.00
2019,09,17,03,28,0.00
2019,09,17,03,29,0.00
2019,09,17,03,30,0.00
2019,09,17,03,31,0.00
2019,09,17,03,32,0.00
2019,09,17,03,33,0.00
2019,09,17,03,34,0.00
2019,09,17,03,35,0.00
2019,09,17,03,36,0.00
2019,09,17,03,37,0.00
2019,09,17,03,38,0.00
2019,09,17,03,39,0.00
2019,09,17,03,40,0.00
2019,09,17,03,41,0.00
2019,09,17,03,42,0.00
2019,09,17,03,43,0.00
2019,09,17,03,44,0.00
2019,09,17,03,45,0.00
2019,09,17,03,46,3.20
2019,09,17,03,47,1.10
2019,09,17,03,48,0.00
2019,09,17,03,49,3.10
2019,09,17,03,50,0.00
2019,09,17,03,51,0.60
2019,09,17,03,52,2.70
2019,09,17,03,53,0.20
2019,09,17,03,54,13.20
2019,09,17,03,55,3.20
2019,09,17,03,56,12.30
2019,09,17,03,57,5.60
2019,09,17,03,58,0.40
2019,09,17,03,59,5.70
2019,09,17,04,00,0.10
2019,09,17,04,01,13.50
2019,09,17,04,02,16.20
2019,09,17,04,03,14.10
2019,09,17,04,04,20.50
2019,09,17,04,05,17.10
2019,09,17,04,06,16.50
2019,09,17,04,07,19.00
2019,09,17,04,08,7.80
2019,09,17,04,09,9.60
2019,09,17,04,10,21.70
2019,09,17,04,11,8.60
2019,09,17,04,12,5.30
2019,09,17,04,13,11.60
2019,09,17,04,14,26.90
2019,09,17,04,15,11.70
2019,09,17,04,16,18.10
2019,09,17,04,17,0.60
2019,09,17,04,18,5.70
2019,09,17,04,19,0.00
2019,09,17,04,20,0.10
2019,09,17,04,21,0.10
2019,09,17,04,22,3.80
2019,09,17,04,23,3.90
2019,09,17,04,24,2.40
2019,09,17,04,25,0.10
2019,09,17,04,26,8.40
2019,09,17,04,27,8.30
2019,09,17,04,28,17.50
2019,09,17,04,29,12.00
2019,09,17,04,30,9.70
2019,09,17,04,31,10.90
2019,09,17,04,32,7.90
2019,09,17,04,33,11.70
2019,09,17,04,34,13.60
2019,09,17,04,35,6.40
2019,09,17,04,36,4.00
2019,09,17,04,37,9.80
2019,09,17,04,38,8.30
2019,09,17,04,39,8.90
2019,09,17,04,40,0.70
2019,09,17,04,41,15.80
2019,09,17,04,42,26.20
2019,09,17,04,43,7.10
2019,09,17,04,44,0.20
2019,09,17,04,45,6.00
2019,09,17,04,46,9.00
2019,09,17,04,47,6.50
2019,09,17,04,48,1.70
2019,09,17,04,49,9.20
2019,09,17,04,50,23.00
2019,09,17,04,51,32.70
2019,09,17,04,52,16.70
2019,09,17,04,53,17.50
2019,09,17,04,54,22.50
2019,09,17,04,55,10.00
2019,09,17,04,56,3.70
2019,09,17,04,57,19.60
2019,09,17,04,58,21.80
2019,09,17,04,59,17.20
2019,09,17,05,00,24.10
2019,09,17,05,01,20.00
2019,09,17,05,02,23.90
2019,09,17,05,03,8.60
2019,09,17,05,04,19.00
2019,09,17,05,05,16.30
2019,09,17,05,06,16.40
2019,09,17,05,07,14.30
2019,09,17,05,08,16.60
2019,09,17,05,09,23.00
2019,09,17,05,10,13.10
2019,09,17,05,11,12.00
2019,09,17,05,12,12.20
2019,09,17,05,13,1.90
2019,09,17,05,14,0.10
2019,09,17,05,15,4.50
2019,09,17,05,16,14.80
2019,09,17,05,17,6.10
2019,09,17,05,18,0.00
2019,09,17,05,19,2.10
2019,09,17,05,20,2.30
2019,09,17,05,21,6.80
2019,09,17,05,22,24.50
2019,09,17,05,23,27.60
2019,09,17,05,24,12.00
2019,09,17,05,25,11.10
2019,09,17,05,26,8.90
2019,09,17,05,27,9.70
2019,09,17,05,28,0.50
2019,09,17,05,29,0.10
2019,09,17,05,30,8.90
2019,09,17,05,31,2.40
2019,09,17,05,32,0.00
2019,09,17,05,33,0.10
2019,09,17,05,34,0.00
2019,09,17,05,35,0.00
2019,09,17,05,36,7.30
2019,09,17,05,37,2.10
2019,09,17,05,38,0.10
2019,09,17,05,39,0.00
2019,09,17,05,40,0.10
2019,09,17,05,41,0.00
2019,09,17,05,42,0.00
2019,09,17,05,43,0.00
2019,09,17,05,44,0.10
2019,09,17,05,45,6.20
2019,09,17,05,46,5.40
2019,09,17,05,47,0.10
2019,09,17,05,48,1.30
2019,09,17,05,49,0.00
2019,09,17,05,50,0.10
2019,09,17,05,51,3.60
2019,09,17,05,52,6.50
2019,09,17,05,53,9.70
2019,09,17,05,54,10.40
2019,09,17,05,55,10.00
2019,09,17,05,56,18.80
2019,09,17,05,57,7.60
2019,09,17,05,58,7.60
2019,09,17,05,59,7.60
2019,09,17,06,00,13.20
2019,09,17,06,01,13.00
2019,09,17,06,02,0.90
2019,09,17,06,03,9.00
2019,09,17,06,04,6.60
2019,09,17,06,05,11.70
2019,09,17,06,06,21.90
2019,09,17,06,07,17.60
2019,09,17,06,08,6.20
2019,09,17,06,09,1.10
2019,09,17,06,10,2.00
2019,09,17,06,11,15.90
2019,09,17,06,12,4.00
2019,09,17,06,13,14.80
2019,09,17,06,14,14.20
2019,09,17,06,15,17.90
2019,09,17,06,16,11.00
2019,09,17,06,17,0.00
2019,09,17,06,18,0.00
2019,09,17,06,19,0.10
2019,09,17,06,20,0.10
2019,09,17,06,21,0.00
2019,09,17,06,22,0.00
2019,09,17,06,23,0.00
2019,09,17,06,24,0.00
2019,09,17,06,25,0.00
2019,09,17,06,26,0.00
2019,09,17,06,27,0.00
2019,09,17,06,28,0.00
2019,09,17,06,29,0.00
2019,09,17,06,30,0.00
2019,09,17,06,31,0.00
2019,09,17,06,32,0.00
2019,09,17,06,33,0.00
2019,09,17,06,34,0.00
2019,09,17,06,35,0.10
2019,09,17,06,36,2.40
2019,09,17,06,37,0.00
2019,09,17,06,38,0.00
2019,09,17,06,39,7.20
2019,09,17,06,40,19.20
2019,09,17,06,41,11.80
2019,09,17,06,42,13.40
2019,09,17,06,43,15.10
2019,09,17,06,44,5.10
2019,09,17,06,45,14.30
2019,09,17,06,46,17.80
2019,09,17,06,47,9.20
2019,09,17,06,48,4.40
2019,09,17,06,49,13.90
2019,09,17,06,50,28.70
2019,09,17,06,51,11.80
2019,09,17,06,52,6.50
2019,09,17,06,53,6.00
2019,09,17,06,54,10.70
2019,09,17,06,55,14.70
2019,09,17,06,56,11.50
2019,09,17,06,57,12.20
2019,09,17,06,58,10.20
2019,09,17,06,59,1.10
2019,09,17,07,00,23.20
2019,09,17,07,01,23.40
2019,09,17,07,02,8.10
2019,09,17,07,03,23.70
2019,09,17,07,04,16.70
2019,09,17,07,05,18.70
2019,09,17,07,06,13.80
2019,09,17,07,07,25.50
2019,09,17,07,08,12.30
2019,09,17,07,09,24.70
2019,09,17,07,10,27.40
2019,09,17,07,11,38.50
2019,09,17,07,12,32.30
2019,09,17,07,13,25.90
2019,09,17,07,14,30.10
2019,09,17,07,15,27.60
2019,09,17,07,16,29.80
2019,09,17,07,17,30.40
2019,09,17,07,18,23.40
2019,09,17,07,19,33.60
2019,09,17,07,20,49.00
2019,09,17,07,21,29.40
2019,09,17,07,22,28.00
2019,09,17,07,23,30.80
2019,09,17,07,24,54.60
2019,09,17,07,25,27.20
2019,09,17,07,26,25.80
2019,09,17,07,27,19.70
2019,09,17,07,28,26.00
2019,09,17,07,29,27.80
2019,09,17,07,30,23.40
2019,09,17,07,31,29.90
2019,09,17,07,32,33.30
2019,09,17,07,33,28.70
2019,09,17,07,34,21.50
2019,09,17,07,35,34.90
2019,09,17,07,36,23.70
2019,09,17,07,37,25.00
2019,09,17,07,38,42.80
2019,09,17,07,39,27.80
2019,09,17,07,40,38.60
2019,09,17,07,41,30.60
2019,09,17,07,42,26.60
2019,09,17,07,43,23.90
2019,09,17,07,44,31.50
2019,09,17,07,45,31.70
2019,09,17,07,46,27.80
2019,09,17,07,47,28.60
2019,09,17,07,48,30.70
2019,09,17,07,49,26.20
2019,09,17,07,50,28.80
2019,09,17,07,51,27.50
2019,09,17,07,52,24.80
2019,09,17,07,53,33.70
2019,09,17,07,54,36.70
2019,09,17,07,55,34.40
2019,09,17,07,56,30.00
2019,09,17,07,57,44.80
2019,09,17,07,58,43.70
2019,09,17,07,59,40.30
2019,09,17,08,00,39.40
2019,09,17,08,01,39.30
2019,09,17,08,02,23.50
2019,09,17,08,03,27.20
2019,09,17,08,04,28.60
2019,09,17,08,05,16.90
2019,09,17,08,06,24.60
2019,09,17,08,07,17.80
2019,09,17,08,08,12.30
2019,09,17,08,09,14.60
2019,09,17,08,10,18.70
2019,09,17,08,11,17.10
2019,09,17,08,12,16.50
2019,09,17,08,13,24.40
2019,09,17,08,14,11.30
2019,09,17,08,15,9.30
2019,09,17,08,16,0.00
2019,09,17,08,17,5.20
2019,09,17,08,18,3.60
2019,09,17,08,19,0.00
2019,09,17,08,20,2.60
2019,09,17,08,21,19.20
2019,09,17,08,22,17.50
2019,09,17,08,23,12.50
2019,09,17,08,24,30.70
2019,09,17,08,25,38.20
2019,09,17,08,26,22.10
2019,09,17,08,27,22.70
2019,09,17,08,28,22.20
2019,09,17,08,29,12.90
2019,09,17,08,30,16.20
2019,09,17,08,31,14.30
2019,09,17,08,32,36.50
2019,09,17,08,33,22.90
2019,09,17,08,34,18.80
2019,09,17,08,35,25.10
2019,09,17,08,36,20.80
2019,09,17,08,37,17.40
2019,09,17,08,38,25.60
2019,09,17,08,39,36.40
2019,09,17,08,40,27.40
2019,09,17,08,41,33.80
2019,09,17,08,42,28.10
2019,09,17,08,43,29.80
2019,09,17,08,44,31.90
2019,09,17,08,45,35.10
2019,09,17,08,46,24.10
2019,09,17,08,47,22.00
2019,09,17,08,48,20.00
2019,09,17,08,49,34.30
2019,09,17,08,50,42.80
2019,09,17,08,51,52.10
2019,09,17,08,52,27.50
2019,09,17,08,53,27.00
2019,09,17,08,54,25.00
2019,09,17,08,55,18.90
2019,09,17,08,56,23.20
2019,09,17,08,57,36.40
2019,09,17,08,58,27.90
2019,09,17,08,59,20.50
2019,09,17,09,00,23.80
2019,09,17,09,01,25.80
2019,09,17,09,02,29.00
2019,09,17,09,03,40.70
2019,09,17,09,04,36.20
2019,09,17,09,05,33.40
2019,09,17,09,06,44.20
2019,09,17,09,07,40.90
2019,09,17,09,08,32.60
2019,09,17,09,09,32.70
2019,09,17,09,10,22.80
2019,09,17,09,11,36.00
2019,09,17,09,12,26.60
2019,09,17,09,13,21.70
2019,09,17,09,14,20.90
2019,09,17,09,15,12.50
2019,09,17,09,16,36.20
2019,09,17,09,17,27.60
2019,09,17,09,18,26.90
2019,09,17,09,19,21.60
2019,09,17,09,20,26.50
2019,09,17,09,21,17.20
2019,09,17,09,22,13.00
2019,09,17,09,23,20.80
2019,09,17,09,24,30.70
2019,09,17,09,25,37.70
2019,09,17,09,26,20.50
2019,09,17,09,27,10.90
2019,09,17,09,28,21.60
2019,09,17,09,29,14.30
2019,09,17,09,30,16.30
2019,09,17,09,31,16.20
2019,09,17,09,32,41.40
2019,09,17,09,33,29.10
2019,09,17,09,34,34.50
2019,09,17,09,35,11.20
2019,09,17,09,36,10.60
2019,09,17,09,37,18.50
2019,09,17,09,38,28.00
2019,09,17,09,39,20.50
2019,09,17,09,40,14.50
2019,09,17,09,41,23.00
2019,09,17,09,42,20.90
2019,09,17,09,43,24.50
2019,09,17,09,44,22.90
2019,09,17,09,45,15.30
2019,09,17,09,46,21.60
2019,09,17,09,47,30.30
2019,09,17,09,48,38.80
2019,09,17,09,49,24.10
2019,09,17,09,50,25.20
2019,09,17,09,51,28.40
2019,09,17,09,52,20.40
2019,09,17,09,53,39.40
2019,09,17,09,54,42.50
2019,09,17,09,55,48.80
2019,09,17,09,56,31.50
2019,09,17,09,57,36.70
2019,09,17,09,58,56.20
2019,09,17,09,59,45.00
2019,09,17,10,00,41.60
2019,09,17,10,01,36.50
2019,09,17,10,02,29.60
2019,09,17,10,03,45.20
2019,09,17,10,04,30.10
2019,09,17,10,05,20.60
2019,09,17,10,06,14.80
2019,09,17,10,07,28.60
2019,09,17,10,08,37.50
2019,09,17,10,09,29.90
2019,09,17,10,10,54.60
2019,09,17,10,11,36.20
2019,09,17,10,12,18.80
2019,09,17,10,13,34.80
2019,09,17,10,14,33.80
2019,09,17,10,15,44.30
2019,09,17,10,16,28.80
2019,09,17,10,17,33.70
2019,09,17,10,18,36.20
2019,09,17,10,19,28.80
2019,09,17,10,20,28.80
2019,09,17,10,21,28.70
2019,09,17,10,22,37.20
2019,09,17,10,23,34.30
2019,09,17,10,24,36.80
2019,09,17,10,25,18.10
2019,09,17,10,26,25.20
2019,09,17,10,27,27.80
2019,09,17,10,28,23.00
2019,09,17,10,29,26.80
2019,09,17,10,30,39.40
2019,09,17,10,31,29.70
2019,09,17,10,32,32.10
2019,09,17,10,33,19.40
2019,09,17,10,34,36.00
2019,09,17,10,35,30.80
2019,09,17,10,36,31.30
2019,09,17,10,37,17.30
2019,09,17,10,38,30.40
2019,09,17,10,39,31.10
2019,09,17,10,40,32.90
2019,09,17,10,41,38.20
2019,09,17,10,42,25.70
2019,09,17,10,43,26.40
2019,09,17,10,44,44.30
2019,09,17,10,45,17.80
2019,09,17,10,46,21.20
2019,09,17,10,47,19.30
2019,09,17,10,48,40.10
2019,09,17,10,49,21.00
2019,09,17,10,50,20.40
2019,09,17,10,51,42.50
2019,09,17,10,52,15.80
2019,09,17,10,53,26.80
2019,09,17,10,54,24.10
2019,09,17,10,55,21.50
2019,09,17,10,56,19.80
2019,09,17,10,57,15.80
2019,09,17,10,58,31.10
2019,09,17,10,59,35.30
2019,09,17,11,00,42.40
2019,09,17,11,01,29.20
2019,09,17,11,02,36.30
2019,09,17,11,03,21.60
2019,09,17,11,04,29.90
2019,09,17,11,05,24.90
2019,09,17,11,06,32.30
2019,09,17,11,07,28.30
2019,09,17,11,08,31.40
2019,09,17,11,09,23.60
2019,09,17,11,10,31.30
2019,09,17,11,11,31.90
2019,09,17,11,12,33.80
2019,09,17,11,13,34.70
2019,09,17,11,14,20.60
2019,09,17,11,15,34.60
2019,09,17,11,16,31.30
2019,09,17,11,17,46.80
2019,09,17,11,18,21.90
2019,09,17,11,19,31.90
2019,09,17,11,20,45.40
2019,09,17,11,21,26.10
2019,09,17,11,22,43.20
2019,09,17,11,23,33.50
2019,09,17,11,24,35.10
2019,09,17,11,25,47.50
2019,09,17,11,26,39.20
2019,09,17,11,27,30.10
2019,09,17,11,28,36.80
2019,09,17,11,29,27.00
2019,09,17,11,30,26.00
2019,09,17,11,31,16.40
2019,09,17,11,32,38.50
2019,09,17,11,33,33.20
2019,09,17,11,34,34.60
2019,09,17,11,35,39.40
2019,09,17,11,36,39.70
2019,09,17,11,37,33.50
2019,09,17,11,38,35.40
2019,09,17,11,39,38.40
2019,09,17,11,40,35.90
2019,09,17,11,41,34.60
2019,09,17,11,42,32.90
2019,09,17,11,43,45.60
2019,09,17,11,44,37.90
2019,09,17,11,45,33.90
2019,09,17,11,46,42.70
2019,09,17,11,47,35.30
2019,09,17,11,48,40.50
2019,09,17,11,49,33.30
2019,09,17,11,50,43.70
2019,09,17,11,51,35.70
2019,09,17,11,52,52.30
2019,09,17,11,53,40.50
2019,09,17,11,54,45.20
2019,09,17,11,55,34.20
2019,09,17,11,56,41.10
2019,09,17,11,57,40.50
2019,09,17,11,58,40.20
2019,09,17,11,59,34.40
2019,09,17,12,00,35.40
2019,09,17,12,01,35.20
2019,09,17,12,02,31.50
2019,09,17,12,03,33.70
2019,09,17,12,04,30.00
2019,09,17,12,05,31.10
2019,09,17,12,06,37.60
2019,09,17,12,07,27.90
2019,09,17,12,08,26.30
2019,09,17,12,09,20.90
2019,09,17,12,10,33.90
2019,09,17,12,11,26.40
2019,09,17,12,12,24.20
2019,09,17,12,13,28.10
2019,09,17,12,14,25.80
2019,09,17,12,15,33.50
2019,09,17,12,16,23.30
2019,09,17,12,17,23.40
2019,09,17,12,18,31.10
2019,09,17,12,19,32.00
2019,09,17,12,20,31.90
2019,09,17,12,21,22.00
2019,09,17,12,22,31.60
2019,09,17,12,23,37.20
2019,09,17,12,24,33.00
2019,09,17,12,25,28.10
2019,09,17,12,26,25.00
2019,09,17,12,27,23.20
2019,09,17,12,28,17.30
2019,09,17,12,29,27.70
2019,09,17,12,30,17.40
2019,09,17,12,31,7.80
2019,09,17,12,32,14.90
2019,09,17,12,33,16.20
2019,09,17,12,34,16.20
2019,09,17,12,35,14.80
2019,09,17,12,36,39.20
2019,09,17,12,37,23.90
2019,09,17,12,38,23.10
2019,09,17,12,39,24.40
2019,09,17,12,40,27.80
2019,09,17,12,41,25.20
2019,09,17,12,42,28.40
2019,09,17,12,43,24.70
2019,09,17,12,44,27.40
2019,09,17,12,45,23.90
2019,09,17,12,46,26.60
2019,09,17,12,47,33.80
2019,09,17,12,48,13.60
2019,09,17,12,49,32.80
2019,09,17,12,50,21.30
2019,09,17,12,51,16.40
2019,09,17,12,52,14.80
2019,09,17,12,53,17.60
2019,09,17,12,54,20.20
2019,09,17,12,55,21.10
2019,09,17,12,56,20.80
2019,09,17,12,57,16.90
2019,09,17,12,58,30.60
2019,09,17,12,59,16.70
2019,09,17,13,00,18.90
2019,09,17,13,01,17.80
2019,09,17,13,02,8.80
2019,09,17,13,03,21.20
2019,09,17,13,04,19.30
2019,09,17,13,05,14.80
2019,09,17,13,06,7.20
2019,09,17,13,07,15.40
2019,09,17,13,08,19.50
2019,09,17,13,09,13.40
2019,09,17,13,10,2.90
2019,09,17,13,11,6.30
2019,09,17,13,12,5.90
2019,09,17,13,13,8.60
2019,09,17,13,14,5.60
2019,09,17,13,15,9.40
2019,09,17,13,16,18.20
2019,09,17,13,17,17.40
2019,09,17,13,18,7.60
2019,09,17,13,19,7.10
2019,09,17,13,20,8.90
2019,09,17,13,21,11.10
2019,09,17,13,22,9.50
2019,09,17,13,23,13.20
2019,09,17,13,24,16.50
2019,09,17,13,25,12.00
2019,09,17,13,26,19.10
2019,09,17,13,27,25.80
2019,09,17,13,28,20.20
2019,09,17,13,29,16.40
2019,09,17,13,30,7.20
2019,09,17,13,31,16.20
2019,09,17,13,32,12.50
2019,09,17,13,33,22.80
2019,09,17,13,34,22.50
2019,09,17,13,35,23.40
2019,09,17,13,36,23.30
2019,09,17,13,37,21.80
2019,09,17,13,38,27.60
2019,09,17,13,39,21.30
2019,09,17,13,40,19.90
2019,09,17,13,41,18.60
2019,09,17,13,42,17.60
2019,09,17,13,43,19.40
2019,09,17,13,44,18.10
2019,09,17,13,45,26.20
2019,09,17,13,46,17.50
2019,09,17,13,47,13.40
2019,09,17,13,48,12.90
2019,09,17,13,49,20.40
2019,09,17,13,50,27.30
2019,09,17,13,51,21.60
2019,09,17,13,52,26.00
2019,09,17,13,53,23.60
2019,09,17,13,54,25.70
2019,09,17,13,55,27.90
2019,09,17,13,56,29.40
2019,09,17,13,57,28.00
2019,09,17,13,58,27.20
2019,09,17,13,59,23.10
2019,09,17,14,00,28.60
2019,09,17,14,01,26.20
2019,09,17,14,02,23.00
2019,09,17,14,03,22.50
2019,09,17,14,04,26.80
2019,09,17,14,05,26.90
2019,09,17,14,06,26.50
2019,09,17,14,07,28.20
2019,09,17,14,08,20.70
2019,09,17,14,09,8.30
2019,09,17,14,10,7.80
2019,09,17,14,11,9.50
2019,09,17,14,12,21.20
2019,09,17,14,13,13.30
2019,09,17,14,14,4.20
2019,09,17,14,15,7.60
2019,09,17,14,16,9.00
2019,09,17,14,17,3.60
2019,09,17,14,18,2.10
2019,09,17,14,19,7.80
2019,09,17,14,20,18.40
2019,09,17,14,21,13.80
2019,09,17,14,22,13.40
2019,09,17,14,23,11.20
2019,09,17,14,24,0.80
2019,09,17,14,25,14.10
2019,09,17,14,26,16.50
2019,09,17,14,27,7.50
2019,09,17,14,28,12.60
2019,09,17,14,29,0.30
2019,09,17,14,30,7.20
2019,09,17,14,31,12.30
2019,09,17,14,32,0.10
2019,09,17,14,33,2.90
2019,09,17,14,34,2.60
2019,09,17,14,35,0.10
2019,09,17,14,36,0.00
2019,09,17,14,37,0.10
2019,09,17,14,38,6.70
2019,09,17,14,39,3.20
2019,09,17,14,40,0.00
2019,09,17,14,41,0.20
2019,09,17,14,42,23.20
2019,09,17,14,43,17.70
2019,09,17,14,44,16.20
2019,09,17,14,45,23.20
2019,09,17,14,46,22.80
2019,09,17,14,47,17.40
2019,09,17,14,48,15.70
2019,09,17,14,49,15.60
2019,09,17,14,50,20.30
2019,09,17,14,51,15.40
2019,09,17,14,52,20.00
2019,09,17,14,53,16.50
2019,09,17,14,54,17.30
2019,09,17,14,55,3.50
2019,09,17,14,56,12.30
2019,09,17,14,57,4.00
2019,09,17,14,58,4.40
2019,09,17,14,59,1.20
2019,09,17,15,00,14.60
2019,09,17,15,01,5.70
2019,09,17,15,02,0.10
2019,09,17,15,03,0.00
2019,09,17,15,04,3.10
2019,09,17,15,05,0.60
2019,09,17,15,06,0.10
2019,09,17,15,07,0.00
2019,09,17,15,08,0.00
2019,09,17,15,09,0.00
2019,09,17,15,10,0.00
2019,09,17,15,11,0.00
2019,09,17,15,12,3.00
2019,09,17,15,13,5.50
2019,09,17,15,14,1.60
2019,09,17,15,15,8.00
2019,09,17,15,16,12.50
2019,09,17,15,17,8.30
2019,09,17,15,18,11.10
2019,09,17,15,19,14.60
2019,09,17,15,20,15.70
2019,09,17,15,21,12.50
2019,09,17,15,22,8.30
2019,09,17,15,23,18.30
2019,09,17,15,24,11.50
2019,09,17,15,25,13.20
2019,09,17,15,26,15.00
2019,09,17,15,27,21.00
2019,09,17,15,28,15.40
2019,09,17,15,29,7.90
2019,09,17,15,30,12.60
2019,09,17,15,31,0.00
2019,09,17,15,32,1.90
2019,09,17,15,33,10.10
2019,09,17,15,34,3.90
2019,09,17,15,35,2.00
2019,09,17,15,36,15.40
2019,09,17,15,37,6.60
2019,09,17,15,38,0.00
2019,09,17,15,39,0.00
2019,09,17,15,40,0.00
2019,09,17,15,41,0.00
2019,09,17,15,42,0.10
2019,09,17,15,43,0.00
2019,09,17,15,44,0.00
2019,09,17,15,45,0.00
2019,09,17,15,46,0.00
2019,09,17,15,47,0.00
2019,09,17,15,48,0.00
2019,09,17,15,49,0.00
2019,09,17,15,50,0.00
2019,09,17,15,51,0.00
2019,09,17,15,52,0.00
2019,09,17,15,53,0.00
2019,09,17,15,54,0.00
2019,09,17,15,55,0.00
2019,09,17,15,56,0.00
2019,09,17,15,57,0.00
2019,09,17,15,58,0.00
2019,09,17,15,59,0.20
2019,09,17,16,00,0.00
2019,09,17,16,01,0.00
2019,09,17,16,02,0.00
2019,09,17,16,03,0.20
2019,09,17,16,04,0.00
2019,09,17,16,05,0.00
2019,09,17,16,06,0.50
2019,09,17,16,07,0.40
2019,09,17,16,08,4.60
2019,09,17,16,09,5.60
2019,09,17,16,10,0.00
2019,09,17,16,11,7.40
2019,09,17,16,12,2.30
2019,09,17,16,13,0.00
2019,09,17,16,14,0.00
2019,09,17,16,15,0.10
2019,09,17,16,16,0.00
2019,09,17,16,17,0.00
2019,09,17,16,18,0.10
2019,09,17,16,19,0.00
2019,09,17,16,20,0.00
2019,09,17,16,21,0.00
2019,09,17,16,22,0.20
2019,09,17,16,23,0.00
2019,09,17,16,24,0.00
2019,09,17,16,25,0.20
2019,09,17,16,26,0.10
2019,09,17,16,27,0.00
2019,09,17,16,28,2.50
2019,09,17,16,29,0.70
2019,09,17,16,30,7.80
2019,09,17,16,31,0.00
2019,09,17,16,32,0.00
2019,09,17,16,33,0.00
2019,09,17,16,34,0.00
2019,09,17,16,35,3.90
2019,09,17,16,36,0.10
2019,09,17,16,37,2.40
2019,09,17,16,38,0.60
2019,09,17,16,39,0.10
2019,09,17,16,40,0.00
2019,09,17,16,41,4.30
2019,09,17,16,42,5.00
2019,09,17,16,43,0.20
2019,09,17,16,44,0.00
2019,09,17,16,45,0.00
2019,09,17,16,46,0.00
2019,09,17,16,47,0.00
2019,09,17,16,48,0.00
2019,09,17,16,49,9.30
2019,09,17,16,50,4.40
2019,09,17,16,51,0.00
2019,09,17,16,52,0.00
2019,09,17,16,53,0.10
2019,09,17,16,54,0.20
2019,09,17,16,55,11.70
2019,09,17,16,56,5.80
2019,09,17,16,57,2.60
2019,09,17,16,58,1.50
2019,09,17,16,59,3.90
2019,09,17,17,00,5.10
2019,09,17,17,01,0.00
2019,09,17,17,02,5.10
2019,09,17,17,03,5.00
2019,09,17,17,04,1.70
2019,09,17,17,05,0.00
2019,09,17,17,06,0.00
2019,09,17,17,07,5.90
2019,09,17,17,08,6.20
2019,09,17,17,09,7.10
2019,09,17,17,10,9.90
2019,09,17,17,11,8.20
2019,09,17,17,12,5.10
2019,09,17,17,13,0.30
2019,09,17,17,14,15.50
2019,09,17,17,15,6.40
2019,09,17,17,16,4.40
2019,09,17,17,17,0.00
2019,09,17,17,18,8.10
2019,09,17,17,19,7.30
2019,09,17,17,20,0.90
2019,09,17,17,21,0.00
2019,09,17,17,22,0.00
2019,09,17,17,23,0.00
2019,09,17,17,24,0.00
2019,09,17,17,25,0.00
2019,09,17,17,26,0.00
2019,09,17,17,27,0.00
2019,09,17,17,28,0.00
2019,09,17,17,29,3.60
2019,09,17,17,30,4.90
2019,09,17,17,31,10.60
2019,09,17,17,32,15.40
2019,09,17,17,33,9.70
2019,09,17,17,34,8.20
2019,09,17,17,35,0.00
2019,09,17,17,36,0.00
2019,09,17,17,37,0.00
2019,09,17,17,38,0.00
2019,09,17,17,39,0.00
2019,09,17,17,40,0.00
2019,09,17,17,41,0.00
2019,09,17,17,42,0.00